Hourly Data Report for October 18, 2013

All times are specified in Local Standard Time (LST). Add 1 hour to adjust for Daylight Saving Time where and when it is observed.

FREDERICTON
NEW BRUNSWICK

45°52'08.000" N
66°32'14.000" W
20.70 m
8101505
71700
YFC

Download Data

Hourly Data (October 2013)
Hourly Data Report for October 18, 2013
Temp Definition
°C
Dew Point Temp Definition
°C
Rel Hum Definition
%
Wind Dir Definition
10's deg

Wind Spd Definition
km/h
Visibility Definition
km
Stn Press Definition
kPa
Hmdx Definition


Wind Chill Definition


Weather Definition


TIME
00:00 Legend Double Dagger 8.5 8.4 99 20 9 0.4 100.43     LegendNANA
01:00 Legend Double Dagger 9.8 9.7 99 20 11 0.4 100.42     LegendNANA
02:00 Legend Double Dagger 9.3 9.2 99 21 4 0.4 100.36     LegendNANA
03:00 Legend Double Dagger 8.5 8.4 99 LegendMM 4 0.4 100.35     LegendNANA
04:00 Legend Double Dagger 7.5 7.4 99 20 8 0.6 100.39     LegendNANA
05:00 Legend Double Dagger 7.6 7.5 99 LegendMM 4 1.2 100.36     LegendNANA
06:00 Legend Double Dagger 8.1 8.0 99 LegendMM 4 9.7 100.24     LegendNANA
07:00 Legend Double Dagger 8.3 8.2 99   0 8.1 100.22     LegendNANA
08:00 Legend Double Dagger 8.4 8.3 99 31 5 6.4 100.34     LegendNANA
09:00 Legend Double Dagger 9.3 9.2 99 15 5 16.1 100.26     LegendNANA
10:00 Legend Double Dagger 10.2 10.1 99 8 9 14.5 100.14     LegendNANA
11:00 Legend Double Dagger 10.5 10.2 98 4 9 11.3 100.03     LegendNANA
12:00 Legend Double Dagger 11.7 11.4 98 6 13 3.2 99.89     LegendNANA
13:00 Legend Double Dagger 12.3 12.0 98 9 8 3.6 99.81     LegendNANA
14:00 Legend Double Dagger 13.0 12.5 97 18 8 2.4 99.78     LegendNANA
15:00 Legend Double Dagger 13.3 12.8 97 26 11 4.8 99.79     LegendNANA
16:00 Legend Double Dagger 12.0 11.2 95 30 13 16.1 99.88     LegendNANA
17:00 Legend Double Dagger 12.3 11.4 94 27 8 16.1 99.96     LegendNANA
18:00 Legend Double Dagger 11.3 10.4 94 27 9 16.1 100.05     LegendNANA
19:00 Legend Double Dagger 9.9 9.6 98 25 11 16.1 100.13     LegendNANA
20:00 Legend Double Dagger 7.7 7.4 98 22 13 6.4 100.17     LegendNANA
21:00 Legend Double Dagger 8.4 8.1 98 24 13 16.1 100.19     LegendNANA
22:00 Legend Double Dagger 7.4 7.1 98 22 13 16.1 100.25     LegendNANA
23:00 Legend Double Dagger 8.7 8.4 98 22 11 16.1 100.30     LegendNANA

Notes on Data Quality.

Legend

  • E = Estimated
  • M = Missing
  • NA = Not Available
  • ‡ = Partner data that is not subject to review by the National Climate Archives
Date modified: